Weather History for Hazlehurst, GA

Change the Weather History Date:

Saturday, February 22, 2014

  Actual Average Record
Temperature  
Mean Temperature 54 °F -  
Max Temperature 82 °F 69 °F 82 °F (2014)
Min Temperature 39 °F 34 °F 39 °F (2014)
Degree Days  
Heating Degree Days 11    
Growing Degree Days 4 (Base 50)    
Moisture  
Dew Point 38 °F    
Average Humidity 59    
Maximum Humidity 100    
Minimum Humidity 22    
Precipitation  
Precipitation 0.00 in - - ()
Sea Level Pressure  
Sea Level Pressure 30.10 in    
Wind  
Wind Speed 1 mph (NE)    
Max Wind Speed 7 mph    
Max Gust Speed -    
Visibility 10 miles    
Events      
Averages and records for this station are not official NWS values.
T = Trace of Precipitation, MM = Missing Value Source: NWS Daily Summary

Daily Weather History Graph

Daily Weather History Graph

Search for Another Location

Airport:

Trip Planner

Search our weather history database for the weather conditions in past years. The results will help you decide how hot, cold, wet, or windy it might be!

Date:

Astronomy

Feb. 22, 2014 Rise Set
Actual Time 7:05 AM EST 6:22 PM EST
Civil Twilight 6:40 AM EST 6:47 PM EST
Nautical Twilight 6:12 AM EST 7:16 PM EST
Astronomical Twilight 5:44 AM EST 7:44 PM EST
Moon 12:51 AM EST (2/22) 11:42 AM EST (2/22)
Length of Visible Light 12h 06m
Length of Day
11h 17m
Waning Gibbous, 50% of the Moon is Illuminated
Feb 22
Waning Gibbous
Feb 22
Last Quarter
Mar 1
New
Mar 8
First Quarter
Mar 16
Full

Hourly Weather History & Observations

Time (EST) Temp. Windchill Dew Point Humidity Pressure Visibility Wind Dir Wind Speed Gust Speed Precip Events Conditions
12:15 AM 51.6 °F - 46.8 °F 83% 30.07 in 10.0 mi Calm Calm - N/A   Overcast
12:35 AM 51.1 °F - 46.8 °F 85% 30.07 in 10.0 mi Calm Calm - N/A   Mostly Cloudy
12:55 AM 49.6 °F - 46.6 °F 89% 30.07 in 10.0 mi Calm Calm - N/A   Clear
1:15 AM 48.4 °F - 46.0 °F 92% 30.08 in 10.0 mi Calm Calm - N/A   Mostly Cloudy
1:35 AM 48.2 °F - 46.6 °F 94% 30.08 in 10.0 mi Calm Calm - N/A   Overcast
1:55 AM 48.2 °F - 45.9 °F 92% 30.08 in 10.0 mi Calm Calm - N/A   Scattered Clouds
2:15 AM 48.4 °F - 44.6 °F 87% 30.08 in 10.0 mi Calm Calm - N/A   Clear
2:35 AM 46.9 °F - 45.5 °F 95% 30.08 in 10.0 mi Calm Calm - N/A   Scattered Clouds
2:55 AM 45.7 °F - 45.7 °F 100% 30.08 in 10.0 mi Calm Calm - N/A   Clear
3:15 AM 45.3 °F - 45.1 °F 99% 30.08 in 10.0 mi Calm Calm - N/A   Clear
3:35 AM 45.0 °F - 44.8 °F 99% 30.08 in 10.0 mi Calm Calm - N/A   Clear
3:55 AM 44.6 °F - 44.6 °F 100% 30.09 in 10.0 mi Calm Calm - N/A   Clear
4:15 AM 43.9 °F - 43.7 °F 99% 30.09 in 7.0 mi Calm Calm - N/A   Clear
4:35 AM 42.8 °F - 42.8 °F 100% 30.09 in 10.0 mi Calm Calm - N/A   Clear
4:55 AM 43.5 °F - 43.0 °F 98% 30.10 in 10.0 mi Calm Calm - N/A   Clear
5:15 AM 43.5 °F 41.9 °F 41.9 °F 94% 30.10 in 10.0 mi NNW 3.5 mph - N/A   Clear
5:35 AM 43.5 °F - 41.0 °F 91% 30.10 in 10.0 mi Calm Calm - N/A   Clear
5:55 AM 42.4 °F 40.7 °F 39.9 °F 91% 30.11 in 10.0 mi NNW 3.5 mph - N/A   Clear
6:15 AM 41.9 °F 40.0 °F 40.3 °F 94% 30.12 in 10.0 mi NNW 3.5 mph - N/A   Clear
6:35 AM 42.3 °F 40.5 °F 40.3 °F 93% 30.12 in 10.0 mi NNW 3.5 mph - N/A   Clear
6:55 AM 42.4 °F - 39.4 °F 89% 30.13 in 10.0 mi Calm Calm - N/A   Clear
7:15 AM 40.3 °F - 39.4 °F 97% 30.13 in 10.0 mi Calm Calm - N/A   Clear
7:35 AM 39.7 °F - 39.7 °F 100% 30.14 in 10.0 mi Calm Calm - N/A   Clear
7:55 AM 41.9 °F 38.2 °F 39.4 °F 91% 30.15 in 10.0 mi NNW 5.8 mph - N/A   Clear
8:15 AM 44.1 °F - 37.4 °F 77% 30.15 in 10.0 mi Calm Calm - N/A   Clear
8:35 AM 45.9 °F 44.6 °F 36.9 °F 71% 30.15 in 10.0 mi NNW 3.5 mph - N/A   Clear
8:55 AM 46.6 °F - 36.9 °F 69% 30.15 in 10.0 mi NNW 3.5 mph - N/A   Clear
9:15 AM 48.6 °F - 37.9 °F 67% 30.16 in 10.0 mi NNW 3.5 mph - N/A   Clear
9:35 AM 51.3 °F - 38.1 °F 61% 30.17 in 10.0 mi Calm Calm - N/A   Clear
9:55 AM 54.1 °F - 37.8 °F 54% 30.16 in 10.0 mi Calm Calm - N/A   Clear
10:15 AM 56.5 °F - 37.6 °F 49% 30.16 in 10.0 mi Calm Calm - N/A   Clear
10:35 AM 59.0 °F - 36.1 °F 42% 30.16 in 1.8 mi North 4.6 mph - N/A   Haze
10:55 AM 60.4 °F - 33.1 °F 36% 30.16 in 10.0 mi North 3.5 mph - N/A   Clear
11:15 AM 61.3 °F - 32.0 °F 33% 30.15 in 10.0 mi Calm Calm - N/A   Clear
11:35 AM 62.6 °F - 32.7 °F 33% 30.15 in 10.0 mi Calm Calm - N/A   Clear
11:55 AM 64.2 °F - 33.1 °F 31% 30.15 in 10.0 mi North 4.6 mph - N/A   Clear
12:15 PM 64.9 °F - 32.4 °F 30% 30.14 in 10.0 mi NNW 4.6 mph - N/A   Clear
12:35 PM 65.5 °F - 32.2 °F 29% 30.13 in 10.0 mi NW 3.5 mph - N/A   Clear
12:55 PM 66.0 °F - 32.0 °F 28% 30.12 in 10.0 mi Calm Calm - N/A   Clear
1:15 PM 67.5 °F - 31.6 °F 26% 30.11 in 10.0 mi NNE 4.6 mph - N/A   Clear
1:35 PM 68.2 °F - 29.8 °F 24% 30.10 in 10.0 mi ENE 6.9 mph - N/A   Clear
1:55 PM 68.4 °F - 29.7 °F 24% 30.09 in 10.0 mi North 4.6 mph - N/A   Clear
2:15 PM 69.1 °F - 29.1 °F 23% 30.08 in 10.0 mi ENE 4.6 mph - N/A   Clear
2:35 PM 68.7 °F - 30.0 °F 24% 30.07 in 10.0 mi Calm Calm - N/A   Clear
2:55 PM 68.9 °F - 31.6 °F 25% 30.07 in 10.0 mi East 4.6 mph - N/A   Clear
3:15 PM 69.4 °F - 30.4 °F 23% 30.07 in 10.0 mi ENE 5.8 mph - N/A   Clear
3:35 PM 69.6 °F - 28.4 °F 22% 30.06 in 10.0 mi East 6.9 mph - N/A   Clear
3:55 PM 69.6 °F - 29.1 °F 22% 30.07 in 10.0 mi NNE 4.6 mph - N/A   Clear
4:15 PM 69.4 °F - 29.8 °F 23% 30.07 in 10.0 mi Calm Calm - N/A   Clear
4:35 PM 69.4 °F - 28.9 °F 22% 30.07 in 10.0 mi East 3.5 mph - N/A   Clear
4:55 PM 68.4 °F - 29.8 °F 24% 30.07 in 10.0 mi Calm Calm - N/A   Clear
5:15 PM 68.0 °F - 32.2 °F 26% 30.07 in 10.0 mi East 3.5 mph - N/A   Clear
5:35 PM 66.9 °F - 33.6 °F 29% 30.08 in 10.0 mi Calm Calm - N/A   Clear
5:55 PM 65.3 °F - 34.7 °F 32% 30.08 in 10.0 mi Calm Calm - N/A   Clear
6:15 PM 62.8 °F - 38.1 °F 40% 30.07 in 10.0 mi Calm Calm - N/A   Clear
6:35 PM 60.8 °F - 41.9 °F 50% 30.08 in 10.0 mi Calm Calm - N/A   Clear
6:55 PM 59.4 °F - 41.2 °F 51% 30.08 in 10.0 mi Calm Calm - N/A   Clear
7:15 PM 58.3 °F - 39.4 °F 49% 30.09 in 10.0 mi Calm Calm - N/A   Clear
7:35 PM 58.3 °F - 39.0 °F 49% 30.09 in 10.0 mi Calm Calm - N/A   Clear
7:55 PM 57.9 °F - 39.2 °F 50% 30.10 in 10.0 mi East 4.6 mph - N/A   Clear
8:15 PM 58.5 °F - 37.6 °F 46% 30.09 in 10.0 mi East 3.5 mph - N/A   Clear
8:35 PM 59.2 °F - 36.9 °F 43% 30.10 in 10.0 mi East 5.8 mph - N/A   Clear
8:55 PM 58.6 °F - 37.2 °F 45% 30.10 in 10.0 mi ESE 5.8 mph - N/A   Clear
9:15 PM 59.0 °F - 38.1 °F 46% 30.10 in 10.0 mi ESE 6.9 mph - N/A   Clear
9:35 PM 57.7 °F - 39.6 °F 51% 30.10 in 10.0 mi SE 4.6 mph - N/A   Clear
9:55 PM 57.0 °F - 38.7 °F 50% 30.10 in 10.0 mi SE 4.6 mph - N/A   Clear
10:15 PM 56.3 °F - 38.1 °F 51% 30.11 in 10.0 mi SE 4.6 mph - N/A   Clear
10:35 PM 54.9 °F - 38.5 °F 54% 30.11 in 10.0 mi SSE 4.6 mph - N/A   Clear
10:55 PM 54.0 °F - 38.7 °F 56% 30.10 in 10.0 mi SSE 4.6 mph - N/A   Clear
11:15 PM 54.0 °F - 38.7 °F 56% 30.10 in 10.0 mi SSE 4.6 mph - N/A   Clear
11:35 PM 53.6 °F - 39.0 °F 58% 30.09 in 10.0 mi SSE 5.8 mph - N/A   Clear
11:55 PM 53.2 °F - 39.4 °F 59% 30.10 in 10.0 mi Calm Calm - N/A   Clear